Jackson, TN

2:15 PM CST on November 20, 2019 (GMT -0600)
McKellar-Sipes Regional

Weather History for KMKL - September, 2019

Change the Weather History Date:

Thursday, September 19, 2019

  Actual Average Record
Temperature  
Mean Temperature 78 °F 70 °F  
Max Temperature 91 °F 83 °F 97 °F (2010)
Min Temperature 64 °F 58 °F 42 °F (1973)
Degree Days  
Heating Degree Days 0 1  
Month to date heating degree days 0 4  
Since 1 July heating degree days 0 4  
Cooling Degree Days 13 6  
Month to date cooling degree days 272 168  
Year to date cooling degree days 1733 1591  
Growing Degree Days 28 (Base 50)    
Moisture  
Dew Point 69 °F    
Average Humidity 76    
Maximum Humidity 93    
Minimum Humidity 52    
Precipitation  
Precipitation 0.00 in 0.12 in 1.85 in (2011)
Month to date precipitation 0.00 1.98  
Year to date precipitation 46.71 37.85  
Sea Level Pressure  
Sea Level Pressure 30.03 in    
Wind  
Wind Speed 3 mph ()    
Max Wind Speed 15 mph    
Max Gust Speed 21 mph    
Visibility 9.8 miles    
Events      
T = Trace of Precipitation, MM = Missing Value Source: Averaged Metar Reports

Daily Weather History Graph

Daily Weather History Graph

Search for Another Location

Airport or City:

Astronomy

Sep. 19, 2019 Rise Set
Actual Time 6:41 AM CDT 6:57 PM CDT
Civil Twilight 6:15 AM CDT 7:22 PM CDT
Nautical Twilight 5:45 AM CDT 7:52 PM CDT
Astronomical Twilight 5:15 AM CDT 8:22 PM CDT
Moon 10:16 PM CDT (9/19) 11:34 AM CDT (9/19)
Length of Visible Light 13h 06m
Length of Day
12h 15m
Waning Gibbous, 74% of the Moon is Illuminated
Sep 19
Waning Gibbous
Sep 21
Last Quarter
Sep 28
New
Oct 5
First Quarter
Oct 13
Full

Hourly Weather History & Observations

Time (CDT) Temp. Heat Index Dew Point Humidity Pressure Visibility Wind Dir Wind Speed Gust Speed Precip Events Conditions
12:53 AM 68.0 °F - 64.9 °F 90% 29.99 in 10.0 mi Calm Calm - N/A   Clear
1:53 AM 66.9 °F - 64.9 °F 93% 29.99 in 10.0 mi Calm Calm - N/A   Clear
2:53 AM 66.9 °F - 64.0 °F 90% 29.99 in 10.0 mi Calm Calm - N/A   Clear
3:53 AM 66.9 °F - 63.0 °F 87% 29.99 in 10.0 mi East 3.5 mph - N/A   Clear
4:53 AM 64.9 °F - 63.0 °F 93% 29.99 in 10.0 mi Calm Calm - N/A   Clear
5:53 AM 70.0 °F - 64.9 °F 84% 30.01 in 10.0 mi SSE 5.8 mph - N/A   Clear
6:53 AM 71.1 °F - 66.9 °F 87% 30.02 in 10.0 mi South 3.5 mph - N/A   Clear
7:53 AM 73.9 °F - 69.1 °F 85% 30.04 in 10.0 mi SSE 4.6 mph - N/A   Clear
8:53 AM 78.1 °F - 70.0 °F 76% 30.05 in 10.0 mi South 15.0 mph 20.7 mph N/A   Clear
9:53 AM 81.0 °F 84.4 °F 70.0 °F 69% 30.06 in 10.0 mi South 11.5 mph 18.4 mph N/A   Clear
10:53 AM 84.0 °F 89.0 °F 71.1 °F 65% 30.07 in 10.0 mi South 8.1 mph - N/A   Clear
11:53 AM 86.0 °F 92.2 °F 72.0 °F 63% 30.07 in 10.0 mi South 5.8 mph - N/A   Clear
12:53 PM 88.0 °F 94.7 °F 72.0 °F 59% 30.06 in 10.0 mi Calm Calm - N/A   Clear
1:53 PM 91.0 °F 98.2 °F 72.0 °F 53% 30.05 in 10.0 mi South 6.9 mph - N/A   Clear
2:53 PM 91.0 °F 97.6 °F 71.1 °F 52% 30.03 in 10.0 mi South 9.2 mph - N/A   Scattered Clouds
3:53 PM 91.0 °F 97.6 °F 71.1 °F 52% 30.01 in 10.0 mi South 10.4 mph - N/A   Partly Cloudy
4:53 PM 87.1 °F 93.6 °F 72.0 °F 61% 30.01 in 10.0 mi South 8.1 mph - N/A   Clear
5:53 PM 84.9 °F 90.1 °F 71.1 °F 63% 30.01 in 10.0 mi SSE 6.9 mph - N/A   Clear
6:53 PM 81.0 °F 84.9 °F 71.1 °F 72% 30.02 in 10.0 mi SSE 3.5 mph - N/A   Clear
7:53 PM 78.1 °F - 71.1 °F 79% 30.04 in 10.0 mi Calm Calm - N/A   Clear
8:53 PM 75.0 °F - 70.0 °F 84% 30.07 in 10.0 mi Calm Calm - N/A   Clear
9:53 PM 72.0 °F - 70.0 °F 93% 30.07 in 8.0 mi Calm Calm - N/A   Clear
10:53 PM 73.0 °F - 70.0 °F 90% 30.07 in 9.0 mi Calm Calm - N/A   Clear
11:53 PM 73.0 °F - 70.0 °F 90% 30.08 in 9.0 mi Calm Calm - N/A   Scattered Clouds